Terug naar catalogus

GLOBALSTAR M055

ActiefCommunicatieLEO
NORAD 25910·PAYLOAD·🇺🇸 United States

Gelanceerd Sep 22, 1999 vanaf Baikonur Cosmodrome

Loading…

Volgende Passages (komende 24 uur)

TLE

VersSource: Space-Track

Epoch: Sep 14, 2026, 01:43 UTC

1 25910U 99049D   26257.07202295 -.00000056  00000-0  33082-3 0  9998
2 25910  52.0007 140.0508 0007219   1.1922 358.8946 12.29448411224114

Volg GLOBALSTAR M055 in realtime met AllMySat

Download on the App Store